Other Public Products
Issued by NWS Grand Forks, ND

Home | Current Version | Previous Version | Graphics & Text | Print | Product List | Glossary On
Versions: 1 2 3 4 5 6 7 8 9 10 11 12 13 14 15 16 17 18 19 20 21 22 23 24 25 26 27 28 29 30 31 32 33 34 35 36 37 38 39 40 41 42 43 44 45 46 47 48 49 50
000
FPUS83 KFGF 271510
OPUFGF
PRAIRIE TO PINES WEATHER ROUNDUP
NATIONAL WEATHER SERVICE EASTERN NORTH DAKOTA/GRAND FORKS ND
1000 AM CDT TUE SEP 27 2016

 **SATELLITE DATA USED TO AUGMENT SKY COVER AT AUTOMATED STATIONS**
 *****  WEATHER ACROSS EASTERN NORTH DAKOTA  *****

CITY           SKY/WX    TMP DP  RH WIND       PRES   REMARKS
GRAND FORKS    MOSUNNY   51  42  71 NW15      29.92R
GRAND FORKS AF SUNNY     51  41  68 N14G23    29.93R
GRAND CITY NWS NOT AVBL
BUXTON         NOT AVBL
DEVILS LAKE    SUNNY     51  37  58 NW15      29.96F
FARGO          SUNNY     53  40  61 NW14      29.91F
WAHPETON ARPT  SUNNY     52  37  58 NW12G17   29.93S
$$

 *****  WEATHER ACROSS CENTRAL AND WESTERN NORTH DAKOTA  *****

CITY           SKY/WX    TMP DP  RH WIND       PRES   REMARKS
JAMESTOWN      SUNNY     54  40  59 NW10      29.96S
BISMARCK       SUNNY     51  41  68 CALM      30.02F
MINOT          SUNNY     53  40  61 CALM      29.99S
MINOT AFB      SUNNY     54  40  59 NW2       29.99S
GARRISON         N/A     54  41  61 CALM      30.00F
WILLISTON      SUNNY     50  44  80 CALM      30.00F
DICKINSON      SUNNY     56  47  71 W3        30.01S
HETTINGER      SUNNY     56  47  71 CALM      30.05R
$$

 *****  OTHER OBSERVATIONS NORTHEAST NORTH DAKOTA  *****

CITY           SKY/WX    TMP DP  RH WIND       PRES   REMARKS
WALHALLA       FAIR      48  45  87 NW12G21   29.94S
LANGDON        FAIR      48  41  76 NW15      29.95S
CAVALIER       CLOUDY    48  41  76 NW13      29.93S
GRAFTON        CLOUDY    48  43  81 NW16      29.94S
CANDO          FAIR      50  39  66 NW12      29.99F
FORT TOTTEN      N/A     53  42  65 NW6       29.95S
ROLLA          FAIR      50  36  57 N13       29.99S
RUGBY          FAIR      46  41  81 NW8       29.99S
 ***** THE ABOVE OBSERVATIONS ARE NON NWS ARE NOT QUALITY
        CONTROLLED AND MAY MIS-REPORT RAIN FOR SNOW...
$$

 *****  OTHER OBSERVATIONS SOUTHEAST NORTH DAKOTA *****

CITY           SKY/WX    TMP DP  RH WIND       PRES   REMARKS
COOPERSTOWN    FAIR      50  41  71 NW14      29.96R
VALLEY CITY    FAIR      50  41  71 NW10      29.97F
OAKES          NOT AVBL
GWINNER        FAIR      54  39  58 NW10      29.96S
SHEYENNE NWR     N/A     52  40  63 NW7       29.95S
BUFFALO        NOT AVBL
WYNDMERE       NOT AVBL
 ***** THE ABOVE OBSERVATIONS ARE NON NWS ARE NOT QUALITY
       CONTROLLED AND MAY MIS-REPORT RAIN FOR SNOW...
$$

  *****  WEATHER ACROSS NORTHERN MINNESOTA  *****

CITY           SKY/WX    TMP DP  RH WIND       PRES   REMARKS
FLAG ISLAND    CLOUDY    48  43  81 NW22      29.79R
WARROAD        CLOUDY    48  43  81 NW14G22   29.82R
ROSEAU         CLOUDY    48  43  81 NW13      29.83R
HALLOCK        CLOUDY    50  45  81 NW18G25   29.88F
THF RVR FALLS  CLOUDY    48  42  80 NW14G22   29.87F
HALSTAD          N/A     52  43  72 N15         N/A
FOSSTON        CLOUDY    46  41  81 NW12      29.86F
BAUDETTE       LGT RAIN  48  44  86 NW15G25   29.78R
WASKISH        LGT RAIN  48  45  87 NW14G20   29.78S
CROOKSTON      PTSUNNY   48  43  81 NW17G23   29.90S
$$
  *****  WEATHER ACROSS CENTRAL AND WEST MINNESOTA  *****

CITY           SKY/WX    TMP DP  RH WIND       PRES   REMARKS
BEMIDJI        CLOUDY    46  42  84 NW17G24   29.80F
PARK RAPIDS    CLOUDY    49  40  71 NW16      29.83S
WADENA         MOSUNNY   50  41  71 NW14G25   29.85R
DETROIT LAKES  SUNNY     48  43  81 N17G26    29.89R
MOORHEAD       SUNNY     54  39  58 NW16      29.91F
FERGUS FALLS   SUNNY     48  41  76 NW12      29.93F
ELBOW LAKE     FAIR      48  40  74 NW13      29.91F
MORRIS MN      SUNNY     54  39  58 NW16G22   29.91R
STAPLES        MOSUNNY   50  41  71 NW24      29.83S
WHEATON        NOT AVBL
$$
  *****  WEATHER ELSEWHERE ACROSS MINNESOTA  *****

CITY           SKY/WX    TMP DP  RH WIND       PRES   REMARKS
DULUTH         DRIZZLE   50  44  80 NW16G26   29.68S
INTRNTL FALLS  LGT RAIN  47  44  90 NW13G22   29.73R
ELY            CLOUDY    46  45  93 NW13G25   29.65R FOG
CLOQUET        CLOUDY    50  43  76 W13G22    29.70S
BRAINERD       CLOUDY    50  42  74 W16G23    29.80S
HIBBING        LGT RAIN  47  44  90 NW16G24   29.71R
ALEXANDRIA     SUNNY     51  41  68 NW14G22   29.89S
SAINT CLOUD    SUNNY     52  43  71 NW21      29.83S
MINNEAPOLIS    MOSUNNY   55  42  61 W18G25    29.83S
$$

  *****  WEATHER ACROSS SOUTH DAKOTA  *****

CITY           SKY/WX    TMP DP  RH WIND       PRES   REMARKS
SIOUX FALLS    SUNNY     60  41  49 NW10      29.99F
BROOKINGS      SUNNY     54  42  64 W5        29.97F
WATERTOWN      SUNNY     55  40  56 NW10      29.96F
HURON          SUNNY     58  41  53 MISG      30.00F
SISSETON         N/A     57  37  47 N13       29.93F
ABERDEEN       SUNNY     59  39  47 NW6       29.99S
MITCHELL       SUNNY     59  42  53 NW7       30.02F
PIERRE         SUNNY     54  42  64 W7        30.02S
MOBRIDGE       SUNNY     55  43  63 NW5       30.00S
RAPID CITY     SUNNY     63  46  54 CALM      30.08S
$$

  *****  SOME WEATHER IN NEARBY STATES *****

CITY           SKY/WX    TMP DP  RH WIND       PRES   REMARKS
GLASGOW MT     SUNNY     52  46  80 S9        29.97R
GREAT FALLS MT SUNNY     63  42  46 S15       30.04S
CHEYENNE WY    SUNNY     62  40  44 W8        30.27R
SCOTTSBLUFF NE SUNNY     52  44  74 NW10      30.18S
OMAHA NE       MOSUNNY   62  47  57 N3        30.03F
DES MOINES IA  MOSUNNY   62  46  55 W7        29.98F
DAVENPORT IA   SUNNY     61  39  44 W16G22    29.91F
CHICAGO IL     MOSUNNY   61  37  41 W15G26    29.82F
EAU CLAIRE WI  CLOUDY    53  43  68 W18       29.75S
LA CROSSE WI   SUNNY     59  43  55 W15       29.80S
$$

  *****  SOME NATIONAL WEATHER *****

CITY           SKY/WX    TMP DP  RH WIND       PRES   REMARKS
LA GUARDIA NY  CLOUDY    70  60  70 NW9       29.94S
RALEIGH NC     CLOUDY    76  67  73 VRB5      29.99F
ATLANTA GA     MOSUNNY   80  68  66 SW6       30.00S
NEW ORLEANS LA PTSUNNY   81  72  74 N7        29.98R
OKLAHOMA CITY  MOSUNNY   66  49  54 W5        30.16S
ALBUQUERQUE NM CLOUDY    54  35  48 N13       30.33R
SALT LAKE CITY SUNNY     58  48  69 SE7       30.23S
LOS ANGELES CA MOSUNNY   78  40  25 SE5       29.85R
BOISE ID       SUNNY     60  42  51 SE6       30.12R
SEATTLE WA     CLOUDY    60  56  86 N7        30.17S
$$

*** WEATHER ACROSS MANITOBA...SASKATCHEWAN AND ONTARIO ***
                ***ONTARIO***

CITY           SKY/WX    TMP DP  RH WIND       PRES   REMARKS
GERALDTON      CLOUDY    50  48  93 NE9       29.50R FOG
THUNDER BAY    PTSUNNY   50  48  93 W9G17     29.53R
SIOUX LOOKOUT  LGT RAIN  43  43 100 N8        29.68R
TORONTO        MOSUNNY   64  43  45 SW17      29.78S
BIG TROUT LK   CLOUDY    50  50 100 NE5       29.73R FOG
PICKLE LAKE    LGT RAIN  45  45 100 N7G17     29.65R FOG
DRYDEN         LGT RAIN  43  41  93 N12G20    29.71R
KENORA         LGT RAIN  45  43  93 N13G25    29.77R FOG
$$
                *** MANITOBA***

CITY           SKY/WX    TMP DP  RH WIND       PRES   REMARKS
BRANDON        MOSUNNY   46  37  71 W7        29.98F
DAUPHIN        SUNNY     48  41  76 NW6       29.99F
ISLAND LAKE    DRIZZLE   43  43 100 N12G23    29.88R FOG
PILOT MOUND      N/A     46  39  76 NW10        N/A
THE PAS        MOSUNNY   46  39  76 SE3       30.01S
THOMPSON       DRIZZLE   41  36  81 NE12      30.01R
WINNIPEG       CLOUDY    50  45  81 NW15      29.90R
LYNN LAKE      FOG       34  34 100 E7        30.03R VSB 1/8
CHURCHILL      CLOUDY    41  41 100 NE17G23   30.01S FOG
GILLAM         DRIZZLE   43  41  93 N18G26    29.95R FOG
$$
                ***SASKATCHEWAN***

CITY           SKY/WX    TMP DP  RH WIND       PRES   REMARKS
ESTEVAN        MOSUNNY   52  41  66 SE5       30.00S
KINDERSLEY     MOSUNNY   50  45  81 S6        29.82S
LLOYDMINSTER   MOSUNNY   48  43  81 S3        29.79R
PRINCE ALBERT  MOSUNNY   46  43  87 E8        29.90F
REGINA         SUNNY     52  37  58 SE15      29.95S
YORKTON        SUNNY     50  41  71 CALM      29.99S  C1F1C2F2C3F3C4F4C5F5C6F6C7F7C8F8C9F9CaFaCbFbCcFcCdFdCe!



USA.gov is the U.S. government's official web portal to all federal, state and local government web resources and services.